| time (UTC) | temp C | wind direction | speed KPH | gust KPH | rain 1hr cm | rain 24hr cm | rain mn cm | humidity % | barometer mb |
| 20260502183428 | 8 | 284 | 16.1 | 25.7 | 0.00 | 0.00 | 0.00 | 35 | 1015.1 |
| 20260502182859 | 9 | 343 | 11.3 | 22.5 | 0.00 | 0.00 | 0.00 | 34 | 1014.7 |
| 20260502182354 | 9 | 298 | 4.8 | 20.9 | 0.00 | 0.00 | 0.00 | 37 | 1015.1 |
| 20260502181835 | 9 | 335 | 12.9 | 22.5 | 0.00 | 0.00 | 0.00 | 36 | 1015.4 |
| 20260502181327 | 8 | 338 | 8.0 | 22.5 | 0.00 | 0.00 | 0.00 | 36 | 1015.1 |
| 20260502180822 | 9 | 332 | 6.4 | 17.7 | 0.00 | 0.00 | 0.00 | 37 | 1015.1 |
| 20260502180524 | 8 | 16 | 3.2 | 16.1 | 0.00 | 0.00 | 0.00 | 39 | 1015.1 |
| 20260502170451 | 8 | 302 | 6.4 | 25.7 | 0.00 | 0.00 | 0.00 | 41 | 1015.4 |
| 20260502170411 | 8 | 310 | 11.3 | 25.7 | 0.00 | 0.00 | 0.00 | 43 | 1015.4 |
| 20260502163855 | 8 | 293 | 6.4 | 20.9 | 0.00 | 0.00 | 0.00 | 45 | 1015.8 |
| 20260502163327 | 7 | 321 | 4.8 | 20.9 | 0.00 | 0.00 | 0.00 | 48 | 1015.8 |
| 20260502162827 | 7 | 326 | 16.1 | 24.1 | 0.00 | 0.00 | 0.00 | 45 | 1015.8 |
| 20260502162328 | 7 | 305 | 12.9 | 24.1 | 0.00 | 0.00 | 0.00 | 47 | 1015.8 |
| 20260502161813 | 8 | 340 | 9.7 | 17.7 | 0.00 | 0.00 | 0.00 | 47 | 1015.8 |
| 20260502161307 | 7 | 318 | 4.8 | 22.5 | 0.00 | 0.00 | 0.00 | 45 | 1015.8 |
| 20260502160842 | 7 | 15 | 4.8 | 22.5 | 0.00 | 0.00 | 0.00 | 40 | 1015.8 |
| 20260502160234 | 7 | 350 | 11.3 | 24.1 | 0.00 | 0.00 | 0.00 | 42 | 1015.8 |
| 20260502152001 | 7 | 355 | 9.7 | 20.9 | 0.00 | 0.00 | 0.00 | 53 | 1015.8 |
| 20260502151454 | 7 | 343 | 1.6 | 20.9 | 0.00 | 0.00 | 0.00 | 56 | 1015.8 |
| 20260502151156 | 6 | 336 | 4.8 | 17.7 | 0.00 | 0.00 | 0.00 | 55 | 1016.1 |
| 20260502150428 | 6 | 311 | 1.6 | 16.1 | 0.00 | 0.00 | 0.00 | 55 | 1015.8 |
| 20260502130408 | 2 | 329 | 6.4 | 11.3 | 0.00 | 0.00 | 0.00 | 79 | 1017.2 |
| 20260502123800 | 1 | 328 | 1.6 | 12.9 | 0.00 | 0.00 | 0.00 | 82 | 1017.2 |
| 20260502123242 | 1 | 340 | 3.2 | 12.9 | 0.00 | 0.00 | 0.00 | 83 | 1016.9 |
| 20260502122955 | 1 | 293 | 3.2 | 11.3 | 0.00 | 0.00 | 0.00 | 83 | 1017.2 |
| 20260502122228 | 1 | 342 | 3.2 | 12.9 | 0.00 | 0.00 | 0.00 | 84 | 1017.2 |
| 20260502121705 | 1 | 342 | 6.4 | 11.3 | 0.00 | 0.00 | 0.00 | 84 | 1017.2 |
| 20260502121418 | 1 | 338 | 1.6 | 6.4 | 0.00 | 0.00 | 0.00 | 85 | 1017.2 |
| 20260502120628 | 0 | 343 | 3.2 | 9.7 | 0.00 | 0.00 | 0.00 | 86 | 1016.9 |
| 20260502120130 | 0 | 293 | 4.8 | 9.7 | 0.00 | 0.00 | 0.00 | 86 | 1016.9 |
| 20260502115622 | 0 | 4 | 4.8 | 9.7 | 0.00 | 0.00 | 0.00 | 87 | 1017.2 |
| 20260502115058 | 0 | 335 | 0.0 | 11.3 | 0.00 | 0.00 | 0.00 | 88 | 1017.2 |
| 20260502114746 | 0 | 305 | 1.6 | 9.7 | 0.00 | 0.00 | 0.00 | 88 | 1016.9 |
| 20260502114027 | 0 | 328 | 1.6 | 4.8 | 0.00 | 0.00 | 0.00 | 89 | 1016.9 |
| 20260502113523 | 0 | 312 | 1.6 | 9.7 | 0.00 | 0.00 | 0.00 | 89 | 1016.9 |
| 20260502113020 | 0 | 325 | 4.8 | 9.7 | 0.00 | 0.00 | 0.00 | 90 | 1016.9 |
| 20260502112507 | 0 | 318 | 0.0 | 4.8 | 0.00 | 0.00 | 0.00 | 91 | 1016.9 |
| 20260502111959 | -1 | 320 | 1.6 | 11.3 | 0.00 | 0.00 | 0.00 | 92 | 1016.9 |
| 20260502111715 | -1 | 314 | 4.8 | 11.3 | 0.00 | 0.00 | 0.00 | 93 | 1016.9 |
| 20260502110927 | -1 | 290 | 1.6 | 6.4 | 0.00 | 0.00 | 0.00 | 93 | 1016.9 |
| 20260502110428 | -2 | 335 | 1.6 | 3.2 | 0.00 | 0.00 | 0.00 | 93 | 1016.9 |
| 20260502105928 | -2 | 306 | 1.6 | 4.8 | 0.00 | 0.00 | 0.00 | 93 | 1016.9 |
| 20260502105413 | -2 | 322 | 1.6 | 4.8 | 0.00 | 0.00 | 0.00 | 94 | 1016.9 |
| 20260502104907 | -2 | 318 | 0.0 | 3.2 | 0.00 | 0.00 | 0.00 | 95 | 1016.9 |
| 20260502104403 | -2 | 324 | 3.2 | 3.2 | 0.00 | 0.00 | 0.00 | 95 | 1016.9 |
| 20260502103859 | -2 | 311 | 1.6 | 3.2 | 0.00 | 0.00 | 0.00 | 95 | 1016.5 |
| 20260502103555 | -2 | 299 | 0.0 | 3.2 | 0.00 | 0.00 | 0.00 | 95 | 1016.9 |
| 20260502102829 | -2 | 292 | 3.2 | 3.2 | 0.00 | 0.00 | 0.00 | 95 | 1016.9 |
| 20260502102539 | -2 | 300 | 0.0 | 4.8 | 0.00 | 0.00 | 0.00 | 95 | 1016.5 |
| 20260502101850 | -2 | 301 | 0.0 | 4.8 | 0.00 | 0.00 | 0.00 | 95 | 1016.9 |
| 20260502101009 | -2 | 308 | 3.2 | 4.8 | 0.00 | 0.00 | 0.00 | 95 | 1016.5 |
| 20260502100220 | -2 | 271 | 1.6 | 4.8 | 0.00 | 0.00 | 0.00 | 95 | 1016.9 |
| 20260502091018 | -2 | 311 | 0.0 | 0.0 | 0.00 | 0.00 | 0.00 | 95 | 1016.5 |
| 20260502090459 | -2 | 314 | 0.0 | 0.0 | 0.00 | 0.00 | 0.00 | 94 | 1016.9 |
| 20260502071453 | -3 | 311 | 0.0 | 1.6 | 0.00 | 0.00 | 0.00 | 99 | 1016.5 |
| 20260502071154 | -3 | 310 | 0.0 | 0.0 | 0.00 | 0.00 | 0.00 | 99 | 1016.5 |
| 20260502070428 | -3 | 311 | 0.0 | 0.0 | 0.00 | 0.00 | 0.00 | 99 | 1016.5 |
| 20260502065921 | -3 | 310 | 0.0 | 0.0 | 0.00 | 0.00 | 0.00 | 99 | 1016.5 |
| 20260502065418 | -3 | 310 | 0.0 | 0.0 | 0.00 | 0.00 | 0.00 | 99 | 1016.5 |
| 20260502064908 | -3 | 310 | 0.0 | 0.0 | 0.00 | 0.00 | 0.00 | 99 | 1016.1 |
| 20260502064400 | -3 | 311 | 0.0 | 0.0 | 0.00 | 0.00 | 0.00 | 99 | 1016.5 |
| 20260502063900 | -3 | 311 | 0.0 | 0.0 | 0.00 | 0.00 | 0.00 | 99 | 1016.5 |
| 20260502063336 | -3 | 311 | 0.0 | 0.0 | 0.00 | 0.00 | 0.00 | 99 | 1016.1 |
| 20260502063033 | -3 | 310 | 0.0 | 0.0 | 0.00 | 0.00 | 0.00 | 99 | 1016.5 |
| 20260502062259 | -3 | 311 | 0.0 | 0.0 | 0.00 | 0.00 | 0.00 | 99 | 1016.5 |
| 20260502062227 | -3 | 311 | 0.0 | 0.0 | 0.00 | 0.00 | 0.00 | 99 | 1016.9 |
| 20260502061235 | -3 | 311 | 0.0 | 0.0 | 0.00 | 0.00 | 0.00 | 99 | 1016.9 |
| 20260502060953 | -2 | 311 | 0.0 | 0.0 | 0.00 | 0.00 | 0.00 | 99 | 1016.5 |
| 20260502060159 | -2 | 311 | 0.0 | 0.0 | 0.00 | 0.00 | 0.00 | 99 | 1016.9 |
| 20260502055652 | -2 | 311 | 0.0 | 0.0 | 0.00 | 0.00 | 0.00 | 99 | 1016.5 |
| 20260502055127 | -2 | 311 | 0.0 | 0.0 | 0.00 | 0.00 | 0.00 | 99 | 1016.5 |
| 20260502054824 | -2 | 310 | 0.0 | 0.0 | 0.00 | 0.00 | 0.00 | 99 | 1016.5 |
| 20260502054050 | -2 | 310 | 0.0 | 0.0 | 0.00 | 0.00 | 0.00 | 99 | 1016.5 |
| 20260502053527 | -2 | 310 | 0.0 | 0.0 | 0.00 | 0.00 | 0.00 | 99 | 1016.9 |
| 20260502053013 | -2 | 310 | 0.0 | 0.0 | 0.00 | 0.00 | 0.00 | 99 | 1016.5 |
| 20260502052507 | -2 | 310 | 0.0 | 0.0 | 0.00 | 0.00 | 0.00 | 99 | 1016.5 |
| 20260502052002 | -2 | 310 | 0.0 | 0.0 | 0.00 | 0.00 | 0.00 | 99 | 1016.9 |
| 20260502051500 | -2 | 310 | 0.0 | 0.0 | 0.00 | 0.00 | 0.00 | 99 | 1016.5 |
| 20260502050935 | -2 | 310 | 0.0 | 0.0 | 0.00 | 0.00 | 0.00 | 99 | 1016.5 |
| 20260502050429 | -2 | 311 | 0.0 | 0.0 | 0.00 | 0.00 | 0.00 | 99 | 1016.5 |
| 20260502045900 | -2 | 310 | 0.0 | 0.0 | 0.00 | 0.00 | 0.00 | 99 | 1016.5 |
| 20260502045355 | -1 | 310 | 0.0 | 0.0 | 0.00 | 0.00 | 0.00 | 99 | 1016.5 |
| 20260502045056 | -1 | 310 | 0.0 | 0.0 | 0.00 | 0.00 | 0.00 | 99 | 1016.5 |
| 20260502044328 | -1 | 310 | 0.0 | 0.0 | 0.00 | 0.00 | 0.00 | 98 | 1016.5 |
| 20260502043821 | -1 | 310 | 0.0 | 0.0 | 0.00 | 0.00 | 0.00 | 98 | 1016.5 |
| 20260502043254 | -1 | 310 | 0.0 | 0.0 | 0.00 | 0.00 | 0.00 | 98 | 1016.5 |
| 20260502042727 | -1 | 310 | 0.0 | 0.0 | 0.00 | 0.00 | 0.00 | 97 | 1016.5 |
| 20260502042228 | 0 | 310 | 0.0 | 0.0 | 0.00 | 0.00 | 0.00 | 95 | 1016.5 |
| 20260502041720 | 0 | 310 | 0.0 | 0.0 | 0.00 | 0.00 | 0.00 | 94 | 1016.5 |
| 20260502041214 | 0 | 310 | 0.0 | 1.6 | 0.00 | 0.00 | 0.00 | 93 | 1016.9 |
| 20260502040708 | 0 | 309 | 0.0 | 1.6 | 0.00 | 0.00 | 0.00 | 93 | 1016.5 |
| 20260502040202 | 0 | 323 | 0.0 | 0.0 | 0.00 | 0.00 | 0.00 | 91 | 1016.5 |
| 20260502035654 | 0 | 323 | 0.0 | 0.0 | 0.00 | 0.00 | 0.00 | 91 | 1016.5 |
| 20260502035124 | 0 | 323 | 0.0 | 1.6 | 0.00 | 0.00 | 0.00 | 90 | 1016.5 |
| 20260502034841 | 0 | 323 | 0.0 | 1.6 | 0.00 | 0.00 | 0.00 | 90 | 1016.5 |
| 20260502034100 | 0 | 323 | 0.0 | 1.6 | 0.00 | 0.00 | 0.00 | 89 | 1016.9 |
| 20260502033543 | 0 | 323 | 0.0 | 1.6 | 0.00 | 0.00 | 0.00 | 90 | 1016.5 |
| 20260502033035 | 0 | 324 | 0.0 | 1.6 | 0.00 | 0.00 | 0.00 | 89 | 1016.5 |
| 20260502032528 | 0 | 324 | 1.6 | 1.6 | 0.00 | 0.00 | 0.00 | 89 | 1016.9 |
| 20260502032021 | 1 | 325 | 0.0 | 1.6 | 0.00 | 0.00 | 0.00 | 88 | 1016.5 |
| 20260502031453 | 1 | 325 | 0.0 | 1.6 | 0.00 | 0.00 | 0.00 | 88 | 1016.5 |
| 20260502030928 | 1 | 325 | 0.0 | 1.6 | 0.00 | 0.00 | 0.00 | 87 | 1016.5 |
| 20260502030408 | 1 | 325 | 0.0 | 1.6 | 0.00 | 0.00 | 0.00 | 87 | 1016.5 |
| 20260502030106 | 1 | 324 | 0.0 | 1.6 | 0.00 | 0.00 | 0.00 | 87 | 1016.5 |
| 20260502025347 | 1 | 325 | 0.0 | 1.6 | 0.00 | 0.00 | 0.00 | 86 | 1016.5 |
| 20260502024836 | 1 | 325 | 0.0 | 1.6 | 0.00 | 0.00 | 0.00 | 86 | 1016.9 |
| 20260502024325 | 1 | 324 | 0.0 | 0.0 | 0.00 | 0.00 | 0.00 | 86 | 1016.5 |
| 20260502023821 | 1 | 325 | 0.0 | 0.0 | 0.00 | 0.00 | 0.00 | 87 | 1016.9 |
| 20260502023300 | 1 | 325 | 0.0 | 0.0 | 0.00 | 0.00 | 0.00 | 86 | 1016.5 |
| 20260502022956 | 1 | 325 | 0.0 | 0.0 | 0.00 | 0.00 | 0.00 | 85 | 1016.5 |
| 20260502022227 | 1 | 325 | 0.0 | 0.0 | 0.00 | 0.00 | 0.00 | 84 | 1016.9 |
| 20260502021701 | 1 | 325 | 0.0 | 1.6 | 0.00 | 0.00 | 0.00 | 83 | 1016.5 |
| 20260502021151 | 1 | 325 | 0.0 | 1.6 | 0.00 | 0.00 | 0.00 | 83 | 1016.5 |
| 20260502020852 | 1 | 325 | 0.0 | 1.6 | 0.00 | 0.00 | 0.00 | 81 | 1016.5 |
| 20260502020129 | 1 | 325 | 1.6 | 1.6 | 0.00 | 0.00 | 0.00 | 81 | 1016.5 |
| 20260502015604 | 1 | 323 | 1.6 | 4.8 | 0.00 | 0.00 | 0.00 | 80 | 1016.5 |
| 20260502015054 | 1 | 334 | 1.6 | 4.8 | 0.00 | 0.00 | 0.00 | 81 | 1016.9 |
| 20260502014528 | 1 | 336 | 1.6 | 1.6 | 0.00 | 0.00 | 0.00 | 82 | 1016.5 |
| 20260502014029 | 0 | 336 | 0.0 | 0.0 | 0.00 | 0.00 | 0.00 | 85 | 1016.9 |
| 20260502013744 | 0 | 336 | 0.0 | 0.0 | 0.00 | 0.00 | 0.00 | 85 | 1016.5 |
| 20260502013013 | 1 | 336 | 0.0 | 0.0 | 0.00 | 0.00 | 0.00 | 82 | 1016.5 |
| 20260502012507 | 1 | 336 | 0.0 | 0.0 | 0.00 | 0.00 | 0.00 | 81 | 1016.5 |
| 20260502012001 | 1 | 336 | 0.0 | 0.0 | 0.00 | 0.00 | 0.00 | 80 | 1016.5 |
| 20260502011500 | 1 | 336 | 0.0 | 0.0 | 0.00 | 0.00 | 0.00 | 78 | 1016.5 |
| 20260502011157 | 2 | 336 | 0.0 | 0.0 | 0.00 | 0.00 | 0.00 | 78 | 1016.5 |
| 20260502010651 | 2 | 336 | 0.0 | 0.0 | 0.00 | 0.00 | 0.00 | 78 | 1016.1 |
| 20260502010124 | 2 | 336 | 0.0 | 0.0 | 0.00 | 0.00 | 0.00 | 78 | 1016.5 |
| 20260502005343 | 2 | 336 | 0.0 | 1.6 | 0.00 | 0.00 | 0.00 | 77 | 1016.1 |
| 20260502004835 | 2 | 338 | 0.0 | 3.2 | 0.00 | 0.00 | 0.00 | 74 | 1016.1 |
| 20260502004329 | 2 | 340 | 0.0 | 3.2 | 0.00 | 0.00 | 0.00 | 72 | 1015.8 |
| 20260502003759 | 2 | 346 | 3.2 | 4.8 | 0.00 | 0.00 | 0.00 | 71 | 1016.1 |
| 20260502003252 | 2 | 327 | 3.2 | 4.8 | 0.00 | 0.00 | 0.00 | 71 | 1016.1 |
| 20260502002727 | 2 | 359 | 0.0 | 3.2 | 0.00 | 0.00 | 0.00 | 72 | 1015.8 |
| 20260502002224 | 2 | 5 | 0.0 | 3.2 | 0.00 | 0.00 | 0.00 | 72 | 1015.8 |
| 20260502001723 | 2 | 341 | 0.0 | 1.6 | 0.00 | 0.00 | 0.00 | 75 | 1016.1 |
| 20260502001159 | 2 | 338 | 0.0 | 0.0 | 0.00 | 0.00 | 0.00 | 75 | 1016.1 |
| 20260502000635 | 2 | 339 | 0.0 | 1.6 | 0.00 | 0.00 | 0.00 | 73 | 1015.8 |
| 20260502000127 | 2 | 341 | 0.0 | 1.6 | 0.00 | 0.00 | 0.00 | 76 | 1015.8 |
| 20260501235621 | 2 | 334 | 0.0 | 1.6 | 0.00 | 0.00 | 0.00 | 75 | 1015.8 |
| 20260501235100 | 2 | 341 | 1.6 | 3.2 | 0.00 | 0.00 | 0.00 | 73 | 1015.8 |
| 20260501234533 | 2 | 342 | 0.0 | 3.2 | 0.00 | 0.00 | 0.00 | 74 | 1015.8 |
| 20260501234027 | 2 | 349 | 1.6 | 4.8 | 0.00 | 0.00 | 0.00 | 72 | 1015.8 |
| 20260501233502 | 2 | 347 | 1.6 | 6.4 | 0.00 | 0.00 | 0.00 | 73 | 1015.8 |
| 20260501232951 | 2 | 323 | 3.2 | 11.3 | 0.00 | 0.00 | 0.00 | 72 | 1015.8 |
| 20260501232435 | 2 | 20 | 4.8 | 12.9 | 0.00 | 0.00 | 0.00 | 70 | 1015.8 |
| 20260501232153 | 3 | 346 | 9.7 | 12.9 | 0.00 | 0.00 | 0.00 | 65 | 1015.8 |
| 20260501231404 | 3 | 342 | 3.2 | 9.7 | 0.00 | 0.00 | 0.00 | 64 | 1015.8 |
| 20260501231126 | 3 | 337 | 3.2 | 6.4 | 0.00 | 0.00 | 0.00 | 63 | 1015.8 |
| 20260501230357 | 3 | 348 | 3.2 | 6.4 | 0.00 | 0.00 | 0.00 | 63 | 1015.4 |
| 20260501225828 | 3 | 345 | 1.6 | 9.7 | 0.00 | 0.00 | 0.00 | 62 | 1015.4 |
| 20260501225322 | 3 | 339 | 1.6 | 9.7 | 0.00 | 0.00 | 0.00 | 63 | 1015.8 |
| 20260501224812 | 3 | 319 | 3.2 | 6.4 | 0.00 | 0.00 | 0.00 | 63 | 1015.1 |
| 20260501224309 | 3 | 337 | 3.2 | 9.7 | 0.00 | 0.00 | 0.00 | 65 | 1015.4 |
| 20260501223801 | 3 | 341 | 4.8 | 9.7 | 0.00 | 0.00 | 0.00 | 64 | 1015.4 |
| 20260501223259 | 4 | 327 | 1.6 | 6.4 | 0.00 | 0.00 | 0.00 | 65 | 1015.4 |
| 20260501222736 | 4 | 347 | 6.4 | 6.4 | 0.00 | 0.00 | 0.00 | 63 | 1015.4 |
| 20260501222227 | 4 | 347 | 3.2 | 6.4 | 0.00 | 0.00 | 0.00 | 65 | 1015.4 |
| 20260501221659 | 4 | 339 | 3.2 | 6.4 | 0.00 | 0.00 | 0.00 | 66 | 1015.4 |
| 20260501221154 | 4 | 22 | 3.2 | 9.7 | 0.00 | 0.00 | 0.00 | 62 | 1015.1 |
| 20260501221118 | 4 | 340 | 6.4 | 11.3 | 0.00 | 0.00 | 0.00 | 64 | 1015.4 |
| 20260501220355 | 4 | 340 | 1.6 | 9.7 | 0.00 | 0.00 | 0.00 | 65 | 1015.1 |
| 20260501215600 | 4 | 332 | 3.2 | 6.4 | 0.00 | 0.00 | 0.00 | 65 | 1015.1 |
| 20260501215053 | 4 | 338 | 1.6 | 6.4 | 0.00 | 0.00 | 0.00 | 66 | 1015.1 |
| 20260501214528 | 4 | 343 | 1.6 | 6.4 | 0.00 | 0.00 | 0.00 | 65 | 1014.7 |
| 20260501214225 | 4 | 329 | 1.6 | 6.4 | 0.00 | 0.00 | 0.00 | 65 | 1015.1 |
| 20260501213932 | 4 | 345 | 3.2 | 6.4 | 0.00 | 0.00 | 0.00 | 65 | 1015.1 |
| 20260501212927 | 5 | 330 | 1.6 | 12.9 | 0.00 | 0.00 | 0.00 | 63 | 1015.1 |
| 20260501212634 | 4 | 345 | 3.2 | 12.9 | 0.00 | 0.00 | 0.00 | 56 | 1015.1 |
| 20260501212129 | 4 | 339 | 4.8 | 11.3 | 0.00 | 0.00 | 0.00 | 57 | 1015.1 |
| 20260501211400 | 4 | 310 | 4.8 | 11.3 | 0.00 | 0.00 | 0.00 | 60 | 1014.7 |
| 20260501210901 | 4 | 318 | 3.2 | 11.3 | 0.00 | 0.00 | 0.00 | 57 | 1014.7 |
| 20260501210334 | 4 | 317 | 4.8 | 16.1 | 0.00 | 0.00 | 0.00 | 57 | 1014.7 |
| 20260501205827 | 4 | 313 | 8.0 | 16.1 | 0.00 | 0.00 | 0.00 | 56 | 1014.7 |
| 20260501205305 | 4 | 323 | 9.7 | 14.5 | 0.00 | 0.00 | 0.00 | 57 | 1014.7 |
| 20260501205016 | 5 | 312 | 11.3 | 22.5 | 0.00 | 0.00 | 0.00 | 59 | 1014.7 |
| 20260501204235 | 5 | 358 | 14.5 | 22.5 | 0.00 | 0.00 | 0.00 | 57 | 1014.4 |
| 20260501203726 | 5 | 286 | 6.4 | 9.7 | 0.00 | 0.00 | 0.00 | 58 | 1014.7 |
| 20260501203445 | 5 | 31 | 3.2 | 17.7 | 0.00 | 0.00 | 0.00 | 57 | 1014.7 |
| 20260501203151 | 5 | 343 | 8.0 | 20.9 | 0.00 | 0.00 | 0.00 | 56 | 1014.7 |
| 20260501202156 | 5 | 16 | 6.4 | 20.9 | 0.00 | 0.00 | 0.00 | 57 | 1014.7 |
| 20260501201629 | 5 | 349 | 12.9 | 20.9 | 0.00 | 0.00 | 0.00 | 57 | 1014.7 |
| 20260501201101 | 5 | 342 | 12.9 | 20.9 | 0.00 | 0.00 | 0.00 | 57 | 1014.7 |
| 20260501200540 | 5 | 357 | 12.9 | 20.9 | 0.00 | 0.00 | 0.00 | 55 | 1014.7 |
| 20260501200027 | 5 | 339 | 3.2 | 17.7 | 0.00 | 0.00 | 0.00 | 56 | 1014.7 |
| 20260501195524 | 5 | 323 | 8.0 | 17.7 | 0.00 | 0.00 | 0.00 | 54 | 1014.7 |
| 20260501195021 | 5 | 350 | 8.0 | 17.7 | 0.00 | 0.00 | 0.00 | 54 | 1014.4 |
| 20260501194500 | 5 | 345 | 8.0 | 17.7 | 0.00 | 0.00 | 0.00 | 57 | 1014.7 |
| 20260501194000 | 5 | 310 | 8.0 | 16.1 | 0.00 | 0.00 | 0.00 | 60 | 1014.4 |
| 20260501193459 | 5 | 324 | 9.7 | 16.1 | 0.00 | 0.00 | 0.00 | 60 | 1014.4 |
| 20260501192955 | 5 | 356 | 6.4 | 11.3 | 0.00 | 0.05 | 0.00 | 59 | 1014.7 |
| 20260501192433 | 5 | 322 | 3.2 | 16.1 | 0.00 | 0.05 | 0.00 | 59 | 1014.7 |
| 20260501192150 | 5 | 344 | 9.7 | 16.1 | 0.00 | 0.05 | 0.00 | 55 | 1014.7 |
| 20260501191401 | 5 | 299 | 9.7 | 16.1 | 0.00 | 0.05 | 0.00 | 56 | 1014.4 |
| 20260501190853 | 5 | 323 | 11.3 | 16.1 | 0.00 | 0.05 | 0.00 | 61 | 1014.4 |
| 20260501190327 | 5 | 355 | 3.2 | 16.1 | 0.00 | 0.05 | 0.00 | 65 | 1014.4 |
| 20260501185807 | 5 | 294 | 9.7 | 14.5 | 0.00 | 0.05 | 0.00 | 63 | 1014.7 |
| 20260501185519 | 4 | 337 | 9.7 | 14.5 | 0.00 | 0.05 | 0.00 | 63 | 1014.7 |
| 20260501185005 | 4 | 321 | 3.2 | 14.5 | 0.00 | 0.05 | 0.00 | 64 | 1014.4 |
| 20260501184459 | 4 | 314 | 6.4 | 16.1 | 0.00 | 0.05 | 0.00 | 65 | 1014.7 |
| 20260501183955 | 4 | 298 | 6.4 | 16.1 | 0.00 | 0.10 | 0.00 | 63 | 1014.7 |